Temp
58 58 59 59 60 59 60 60 60 60 60 61 61 61 61 61 60 66 84 84 78 79 86 86 86 81 84 84 79 84 82 85 85 77 80 82 77 79 76 80 76 75 73 77 77 72 68 86 84 78 80 85 85 86
57 58 58 59 59 59 59 59 59 59 60 60 61 61 61 60 60 60 80 86 84 76 84 88 88 89 87 86 84 89 81 79 83 79 84 82 77 81 75 73 81 73 80 75 80 75 81 85 84 88 88 84 86 86
57 57 57 58 58 59 59 59 59 59 59 60 60 61 61 61 60 61 76 82 81 79 85 87 86 89 92 91 94 80 87 85 86 86 81 81 71 80 73 76 78 79 83 78 77 82 82 85 88 89 89 87 89 90
57 57 57 57 57 58 58 59 59 59 59 59 60 60 61 61 60 59 75 82 79 79 74 86 93 85 91 92 90 91 88 89 89 87 80 79 76 84 77 79 76 81 79 77 78 82 82 83 85 87 88 88 87 89
56 56 57 56 56 57 57 57 57 58 58 59 59 59 60 60 59 64 77 82 82 74 73 79 90 94 93 90 86 87 87 86 83 80 79 77 84 80 80 80 77 85 79 75 77 82 82 80 84 86 86 86 87 87
56 56 56 56 56 56 56 56 57 57 57 58 58 58 58 59 59 72 76 82 84 82 73 74 89 84 86 85 84 83 85 84 84 81 80 84 85 79 74 74 83 85 88 89 82 86 85 87 88 89 86 87 88 89
55 55 55 56 56 56 55 56 56 56 57 57 57 57 57 57 62 70 66 71 62 80 73 72 79 85 85 85 85 84 87 84 83 81 79 80 82 77 75 71 82 84 85 85 87 87 82 86 84 89 89 89 83 89
55 55 55 56 56 56 56 56 56 56 56 56 56 56 56 56 56 62 76 61 66 75 76 69 75 80 86 79 78 86 80 81 81 79 82 79 82 78 70 78 82 84 85 84 84 88 88 89 88 89 90 90 85 85
54 55 55 55 56 56 56 56 56 56 56 56 56 56 55 55 53 64 62 62 75 71 63 72 71 73 86 81 84 81 83 74 83 77 77 80 76 70 76 77 80 82 81 82 85 86 88 86 85 87 88 86 82 82
54 54 55 55 55 55 55 56 56 56 56 55 55 52 49 54 61 62 61 61 57 60 60 66 80 73 82 81 78 78 80 75 72 77 82 75 74 81 84 83 82 83 84 85 81 80 83 83 84 85 85 78 86 86
54 54 54 54 55 55 55 55 56 55 55 53 51 49 55 58 55 53 50 50 51 50 60 70 73 73 85 74 75 80 74 77 68 75 73 73 74 80 84 83 84 85 85 84 85 86 88 87 85 84 82 85 86 86
54 54 54 54 55 55 55 55 55 58 55 53 54 55 54 51 49 47 47 49 48 50 66 70 72 74 79 82 74 75 70 73 65 81 71 68 78 81 82 82 83 84 84 84 86 86 88 88 86 84 85 85 85 84
54 54 54 54 55 55 55 55 55 56 55 55 51 49 48 48 42 43 43 46 47 57 66 69 62 68 75 75 73 70 63 67 81 70 67 75 77 79 80 82 83 85 86 85 86 89 89 86 87 87 85 85 85 84
53 53 54 54 54 54 55 55 55 55 54 54 46 38 44 44 48 51 51 53 57 60 66 67 64 64 73 69 72 63 70 74 64 64 67 79 74 77 79 82 83 83 85 85 85 87 87 86 85 86 86 85 84 82
53 53 54 54 54 55 54 54 55 57 55 52 46 41 48 58 60 59 62 64 58 62 62 62 66 68 67 66 70 68 64 61 66 67 77 80 75 76 77 80 83 84 85 85 86 86 85 85 84 83 84 85 84 81
53 53 56 55 54 54 54 54 54 53 56 54 50 45 53 53 57 59 61 62 68 55 55 60 57 56 58 64 62 62 63 63 71 77 78 75 73 75 76 80 82 84 85 86 86 85 84 83 82 82 83 84 84 82
53 55 57 55 55 54 53 52 49 45 46 45 46 60 60 58 59 61 57 57 57 53 49 51 50 54 64 61 61 68 68 74 81 81 79 75 70 72 76 78 80 81 82 83 82 82 82 83 85 82 80 82 86 84
56 61 56 54 56 53 50 50 48 44 40 44 49 60 64 64 60 59 59 55 53 51 50 47 46 51 54 58 63 68 74 81 80 79 76 69 70 71 74 75 76 77 77 77 77 77 77 75 76 80 81 82 81 81
58 57 55 53 55 49 45 46 48 43 46 54 58 62 63 61 65 60 61 58 53 51 48 46 45 48 54 58 55 62 76 74 72 76 71 73 74 74 74 76 77 77 77 77 77 78 79 78 75 72 73 77 82 84
53 53 53 54 54 46 44 43 48 44 45 56 60 60 60 60 65 59 57 57 50 48 45 43 45 49 48 49 51 53 56 70 74 72 71 73 76 74 74 76 78 78 78 78 79 67 81 80 82 83 84 83 82 82
50 52 52 50 47 47 46 43 44 49 54 53 61 60 55 58 55 52 51 56 45 44 44 51 54 52 53 53 52 53 56 59 72 76 74 73 76 78 77 79 79 77 79 78 78 74 70 79 81 83 83 83 84 84
49 52 47 49 44 44 44 48 47 55 55 56 57 53 52 51 54 55 59 48 46 49 53 55 59 61 52 50 52 53 55 59 58 62 62 68 76 77 77 79 78 77 77 71 78 79 81 83 84 84 83 83 77 83
50 50 47 48 42 41 40 51 46 48 45 48 53 48 52 54 54 58 46 49 56 63 63 63 62 64 61 56 54 53 54 56 59 60 60 76 79 79 78 79 80 78 78 80 82 81 81 69 76 79 81 80 80 80
53 47 42 46 47 40 48 43 45 43 45 46 45 44 49 50 55 49 51 59 62 66 64 61 64 64 66 64 62 61 60 55 56 61 64 63 71 75 80 81 81 81 81 81 81 81 81 80 69 80 80 79 79 79
40 40 43 37 48 43 44 46 46 44 44 44 40 44 43 48 42 47 51 57 59 62 66 66 66 68 66 68 69 68 69 68 63 63 71 75 75 75 78 80 80 82 84 81 79 79 80 81 80 80 80 80 79 79
36 44 40 44 46 45 46 43 46 47 48 45 48 53 53 50 46 48 55 59 62 64 67 67 66 66 67 71 70 71 72 74 72 71 73 77 76 76 75 75 75 77 84 83 81 79 79 80 80 79 80 78 61 75
37 41 51 56 52 53 51 52 51 49 45 46 51 49 48 43 46 57 65 67 66 67 71 72 70 69 70 71 74 76 77 78 75 74 77 78 79 79 78 75 75 79 83 83 83 82 80 80 80 80 80 81 80 80
46 46 44 49 50 53 46 47 46 46 49 53 50 43 43 46 50 58 60 66 68 69 70 72 72 74 73 75 77 76 76 78 78 78 79 79 80 81 80 81 81 58 78 81 81 83 81 80 79 79 78 78 79 81
48 53 50 46 47 49 50 50 51 55 58 53 50 50 51 55 60 58 62 66 68 65 66 66 66 71 71 74 76 77 78 77 73 69 68 70 73 75 80 80 80 81 80 80 60 67 77 77 78 79 79 78 79 80
51 56 49 48 45 46 54 59 55 58 59 60 59 58 58 60 64 67 65 64 64 65 68 70 69 68 66 66 68 70 75 77 76 73 70 71 75 80 80 79 78 80 82 81 79 80 52 64 70 75 73 76 77 77
57 56 51 51 50 55 58 63 63 63 62 60 61 57 57 61 66 69 69 68 68 68 68 68 70 72 71 72 71 69 69 76 78 78 77 78 79 79 79 80 80 81 80 80 80 79 79 77 77 76 76 76 77 73
53 50 50 48 52 59 62 59 58 57 58 58 59 62 62 60 57 65 71 71 68 67 57 64 67 66 70 71 73 74 50 75 75 77 76 77 77 77 78 79 79 79 77 76 76 77 76 76 76 76 77 77 77 77
52 53 52 50 52 52 57 56 55 55 58 57 59 61 62 60 57 66 69 69 63 62 62 64 66 67 66 66 67 67 61 73 61 48 48 46 43 52 65 71 70 66 68 67 67 69 70 73 74 75 75 75 76 76
MSLP
1021.06 1021.04 1021.04 1021.08 1021.21 1021.26 1021.22 1021.16 1021.12 1021.05 1020.89 1020.67 1020.47 1020.25 1019.88 1019.41 1018.91 1018.10 1015.24 1015.25 1014.70 1012.48 1010.38 1010.11 1009.86 1009.63 1008.93 1008.54 1007.73 1007.61 1007.33 1006.59 1005.99 1005.41 1004.46 1003.55 1004.01 1003.83 1004.08 1003.53 1003.67 1003.31 1002.98 1002.04 1002.50 1002.55 1003.24 1004.32 1004.45 1004.23 1005.54 1006.10 1006.37 1006.66
1020.50 1020.51 1020.51 1020.51 1020.61 1020.66 1020.81 1020.83 1020.82 1020.82 1020.78 1020.65 1020.43 1020.20 1020.00 1019.71 1019.23 1018.81 1015.78 1014.93 1015.24 1014.27 1011.00 1010.93 1010.59 1010.37 1010.15 1009.84 1009.30 1008.11 1008.11 1007.90 1007.44 1006.69 1005.81 1005.39 1004.87 1004.71 1004.65 1003.61 1004.68 1004.41 1003.85 1003.67 1003.18 1004.14 1005.36 1005.56 1005.44 1005.89 1006.21 1006.38 1006.62 1006.93
1020.11 1020.03 1020.00 1020.04 1020.07 1020.20 1020.23 1020.37 1020.50 1020.54 1020.53 1020.46 1020.36 1020.16 1019.94 1019.80 1019.55 1019.32 1017.21 1015.75 1014.70 1012.95 1010.61 1009.74 1009.13 1009.86 1010.12 1010.13 1009.89 1009.14 1008.26 1008.55 1008.18 1008.74 1007.76 1006.64 1006.26 1005.81 1004.98 1004.21 1004.40 1005.01 1005.34 1004.80 1004.67 1004.54 1005.48 1005.86 1006.11 1006.29 1006.44 1006.67 1006.79 1006.78
1019.77 1019.79 1019.70 1019.71 1019.73 1019.83 1019.96 1020.05 1020.22 1020.31 1020.31 1020.25 1020.14 1020.09 1019.89 1019.70 1019.61 1019.46 1017.32 1016.06 1015.60 1013.89 1011.46 1008.68 1009.32 1009.71 1009.94 1009.71 1009.78 1009.70 1009.31 1009.23 1008.92 1008.79 1008.04 1007.09 1006.34 1006.55 1005.80 1005.32 1005.65 1005.23 1005.93 1005.40 1005.07 1005.24 1006.09 1006.40 1006.52 1006.51 1006.69 1007.00 1007.05 1006.93
1019.34 1019.49 1019.57 1019.64 1019.72 1019.86 1019.96 1020.11 1020.15 1020.21 1020.15 1020.11 1020.01 1019.89 1019.75 1019.59 1019.43 1019.02 1017.19 1015.98 1015.87 1015.37 1012.31 1009.92 1008.90 1008.56 1009.15 1009.68 1009.91 1009.90 1009.72 1009.26 1008.72 1008.29 1007.76 1007.01 1006.59 1006.86 1006.60 1006.14 1005.43 1005.18 1005.27 1005.51 1004.53 1005.29 1005.50 1006.37 1006.93 1007.04 1006.95 1007.02 1007.17 1007.08
1019.06 1019.18 1019.30 1019.42 1019.57 1019.64 1019.77 1020.08 1020.15 1020.16 1019.98 1019.98 1019.87 1019.73 1019.62 1019.54 1019.37 1018.14 1015.40 1015.55 1015.79 1015.59 1013.86 1010.34 1008.60 1008.82 1009.19 1009.63 1009.75 1009.70 1009.48 1009.11 1008.73 1008.01 1007.48 1007.04 1007.19 1008.04 1006.40 1005.19 1004.97 1005.07 1005.19 1005.18 1005.49 1006.05 1006.42 1006.27 1006.77 1006.91 1006.98 1007.11 1007.11 1007.18
1018.66 1018.78 1018.94 1018.99 1019.15 1019.33 1019.52 1019.65 1019.97 1019.97 1019.88 1019.90 1019.80 1019.59 1019.42 1019.46 1019.25 1017.98 1017.53 1017.00 1017.22 1015.89 1013.93 1011.03 1008.20 1008.29 1009.06 1009.21 1009.03 1008.99 1008.97 1008.65 1008.34 1007.94 1007.51 1007.24 1007.15 1007.98 1006.84 1005.62 1005.16 1005.24 1005.60 1005.81 1006.19 1006.11 1006.50 1006.56 1006.53 1006.74 1006.92 1007.00 1007.59 1007.10
1018.29 1018.36 1018.41 1018.59 1018.72 1018.91 1019.06 1019.30 1019.56 1019.64 1019.83 1019.76 1019.65 1019.44 1019.26 1019.36 1019.51 1018.25 1016.29 1017.28 1017.32 1015.78 1014.22 1011.54 1008.56 1007.88 1008.60 1008.08 1007.91 1008.25 1008.18 1008.30 1007.90 1007.52 1006.88 1006.74 1006.61 1007.23 1006.16 1005.13 1005.10 1005.26 1005.47 1006.00 1006.44 1006.28 1006.17 1006.31 1006.53 1006.62 1006.88 1007.04 1007.27 1007.32
1017.96 1017.91 1018.04 1018.14 1018.21 1018.46 1018.64 1018.83 1019.05 1019.36 1019.46 1019.57 1019.50 1019.29 1019.35 1019.38 1018.92 1017.40 1016.92 1016.94 1016.68 1016.40 1014.26 1011.09 1008.67 1006.82 1007.86 1007.57 1007.23 1007.86 1007.47 1007.15 1006.84 1006.33 1006.27 1006.18 1005.60 1005.09 1004.97 1005.28 1005.10 1005.39 1005.75 1005.94 1006.09 1006.29 1006.03 1006.28 1006.80 1006.73 1006.83 1007.04 1007.52 1007.75
1017.47 1017.53 1017.59 1017.74 1017.85 1018.00 1018.30 1018.56 1018.75 1018.93 1019.30 1019.42 1019.53 1019.33 1018.80 1018.37 1017.97 1017.75 1017.61 1016.57 1016.69 1016.09 1015.04 1011.48 1008.99 1007.61 1007.49 1006.74 1007.07 1007.08 1006.98 1006.42 1005.18 1005.17 1005.46 1004.80 1003.82 1003.91 1004.13 1004.78 1005.09 1005.25 1005.56 1005.77 1005.74 1005.88 1006.13 1006.27 1006.59 1006.68 1006.97 1007.78 1007.70 1008.00
1016.98 1017.09 1017.33 1017.31 1017.54 1017.64 1017.80 1018.10 1018.38 1018.84 1019.11 1019.11 1018.72 1018.46 1018.23 1018.12 1018.10 1017.62 1016.68 1015.98 1015.36 1014.29 1012.70 1010.49 1009.27 1008.01 1007.03 1006.96 1006.50 1006.50 1005.85 1005.63 1004.81 1004.14 1004.39 1003.00 1002.12 1002.05 1002.95 1003.59 1004.49 1005.01 1005.44 1005.69 1005.74 1005.60 1005.79 1006.01 1006.42 1006.73 1007.37 1007.78 1008.21 1008.52
1016.38 1016.65 1016.95 1016.87 1017.04 1017.42 1017.37 1017.69 1018.10 1018.21 1018.17 1018.10 1018.20 1018.22 1018.09 1017.84 1017.26 1016.57 1015.52 1014.90 1013.80 1012.15 1009.85 1008.75 1008.23 1008.23 1007.41 1007.29 1007.30 1006.58 1006.37 1005.68 1004.32 1003.86 1004.09 1002.07 1001.44 1001.88 1002.69 1003.35 1004.03 1004.56 1004.90 1005.12 1005.28 1005.30 1005.32 1005.60 1006.29 1006.90 1007.56 1008.23 1008.60 1009.09
1015.83 1016.32 1016.49 1016.51 1016.62 1016.95 1017.10 1017.19 1017.55 1017.65 1017.92 1018.03 1018.07 1017.72 1017.25 1016.82 1016.03 1014.87 1013.59 1013.00 1012.36 1010.87 1008.70 1008.57 1009.09 1008.50 1007.97 1008.26 1007.36 1006.65 1006.05 1004.67 1004.09 1003.56 1002.54 1001.63 1002.00 1002.57 1003.11 1003.40 1003.71 1003.92 1004.33 1004.69 1004.75 1004.79 1005.05 1005.78 1006.44 1007.13 1007.93 1008.48 1008.95 1009.32
1015.36 1015.67 1015.91 1016.08 1016.26 1016.59 1016.78 1016.83 1017.29 1017.62 1017.66 1017.01 1017.22 1016.83 1015.92 1014.70 1013.58 1012.43 1012.11 1011.92 1011.62 1010.76 1009.37 1009.05 1008.93 1008.59 1007.64 1007.74 1006.56 1005.64 1005.08 1004.11 1002.84 1002.10 1001.22 1000.96 1002.15 1002.79 1003.32 1003.64 1003.50 1003.65 1004.03 1004.51 1004.79 1004.94 1005.23 1006.04 1006.92 1007.73 1008.23 1008.68 1009.03 1009.36
1014.77 1015.03 1015.26 1015.53 1015.80 1016.19 1016.46 1016.65 1017.02 1017.21 1016.54 1015.99 1016.41 1015.10 1013.67 1012.53 1011.82 1011.64 1011.30 1011.26 1011.55 1011.08 1010.50 1009.84 1008.94 1008.04 1007.16 1006.82 1005.58 1004.50 1003.36 1002.10 1001.21 1000.97 1000.58 1000.55 1002.27 1003.12 1003.51 1003.70 1003.47 1003.56 1003.90 1004.35 1004.79 1005.17 1005.99 1006.75 1007.45 1007.99 1008.41 1008.77 1009.20 1009.62
1014.21 1014.71 1014.54 1014.80 1015.33 1015.82 1016.23 1016.66 1016.93 1016.85 1016.00 1015.43 1014.83 1013.68 1012.76 1012.11 1011.23 1011.14 1011.03 1011.06 1010.88 1011.60 1011.46 1010.37 1009.22 1008.08 1006.86 1005.52 1004.10 1002.93 1001.89 1000.88 1000.45 1000.36 1001.02 1002.30 1003.03 1003.60 1003.81 1003.59 1003.46 1003.58 1003.96 1004.34 1004.95 1005.83 1006.57 1007.27 1007.76 1008.39 1008.82 1008.82 1009.12 1009.43
1013.85 1013.44 1013.13 1013.91 1014.74 1015.42 1015.88 1016.19 1016.62 1016.73 1016.03 1014.85 1013.43 1012.24 1011.27 1011.02 1010.67 1010.74 1011.52 1011.82 1012.32 1012.37 1012.17 1011.10 1009.25 1007.40 1006.33 1004.96 1003.58 1002.49 1001.40 1000.57 999.82 1000.48 1001.60 1002.92 1003.88 1004.11 1004.27 1004.16 1004.12 1004.37 1004.59 1005.00 1005.81 1006.67 1007.25 1007.62 1007.89 1008.34 1008.55 1008.73 1008.63 1009.14
1012.72 1012.36 1012.99 1013.47 1014.25 1015.18 1015.55 1015.21 1015.18 1015.35 1014.80 1013.97 1012.61 1010.86 1010.51 1010.16 1010.39 1010.83 1011.61 1012.41 1012.79 1012.94 1012.82 1012.20 1011.08 1008.31 1006.16 1004.72 1003.58 1002.84 1001.74 1000.99 1000.99 1001.57 1002.90 1004.13 1004.62 1004.89 1005.00 1005.21 1005.41 1005.69 1006.20 1006.75 1007.38 1007.94 1008.28 1008.47 1008.59 1008.58 1008.88 1008.83 1008.93 1009.07
1011.76 1012.02 1012.64 1013.18 1013.76 1014.12 1014.34 1014.58 1014.54 1013.97 1013.44 1012.63 1011.92 1010.90 1010.07 1010.15 1010.33 1011.14 1011.75 1012.43 1013.13 1013.51 1013.44 1012.96 1011.97 1009.47 1007.61 1006.78 1006.23 1004.59 1002.45 1002.20 1002.43 1002.86 1004.22 1004.68 1005.04 1005.25 1005.61 1005.91 1006.03 1006.27 1006.72 1007.20 1007.58 1007.69 1007.83 1008.34 1008.58 1008.72 1008.84 1008.69 1008.44 1008.09
1012.14 1012.28 1012.48 1013.10 1013.72 1013.78 1014.10 1014.71 1014.78 1013.77 1012.55 1011.34 1010.97 1010.11 1009.66 1009.68 1009.61 1010.83 1011.60 1012.22 1012.92 1013.36 1013.08 1012.53 1011.47 1010.43 1009.95 1009.78 1008.79 1007.72 1006.24 1003.96 1003.27 1003.80 1004.52 1004.88 1005.25 1005.63 1005.88 1005.97 1005.99 1006.44 1006.86 1007.25 1007.46 1007.64 1007.54 1007.84 1007.94 1007.96 1007.92 1007.88 1008.13 1007.99
1012.40 1012.21 1012.67 1013.25 1013.70 1013.64 1013.99 1014.13 1013.83 1012.92 1011.82 1011.11 1010.12 1009.99 1009.95 1010.15 1010.18 1010.65 1011.27 1011.82 1012.32 1012.15 1011.25 1010.41 1010.00 1009.94 1010.13 1010.38 1009.85 1009.01 1007.38 1005.99 1004.29 1003.80 1004.02 1004.56 1005.03 1005.07 1005.51 1005.74 1006.23 1006.50 1006.53 1006.76 1007.13 1007.31 1007.58 1007.45 1007.52 1007.66 1007.70 1007.66 1007.64 1007.67
1011.52 1011.70 1012.78 1013.33 1013.76 1013.83 1013.59 1013.55 1012.93 1012.19 1011.35 1010.31 1010.02 1010.20 1009.79 1009.70 1009.51 1009.68 1010.31 1010.62 1010.22 1010.12 1010.06 1009.63 1009.15 1009.15 1009.60 1010.09 1009.87 1009.18 1008.43 1007.31 1006.41 1005.65 1004.38 1004.20 1004.53 1004.61 1004.89 1005.23 1005.75 1005.96 1006.37 1006.57 1006.59 1006.39 1006.47 1006.62 1006.91 1007.06 1007.14 1007.25 1007.44 1007.51
1011.69 1012.19 1012.85 1013.12 1013.24 1013.32 1013.34 1012.99 1012.43 1011.93 1010.96 1010.37 1010.00 1009.83 1009.31 1008.89 1009.00 1009.30 1009.51 1009.02 1008.22 1007.62 1007.59 1007.56 1007.47 1007.80 1008.11 1008.82 1009.24 1009.48 1009.13 1008.45 1007.76 1006.93 1006.04 1004.41 1004.14 1004.65 1004.85 1004.97 1005.16 1005.32 1005.36 1005.55 1005.83 1006.08 1006.28 1006.53 1006.79 1007.13 1007.16 1007.23 1007.20 1007.11
1011.90 1012.30 1012.45 1012.18 1012.21 1012.34 1012.25 1012.11 1012.08 1011.74 1011.04 1010.27 1010.05 1009.57 1009.19 1009.06 1008.75 1008.42 1007.19 1006.09 1005.31 1005.14 1005.56 1005.77 1005.87 1006.12 1006.29 1006.65 1007.09 1007.34 1007.43 1007.64 1007.59 1007.25 1006.54 1005.63 1004.72 1004.35 1004.22 1004.26 1004.51 1004.88 1005.23 1005.43 1005.57 1005.70 1005.85 1006.01 1006.31 1006.43 1006.51 1006.55 1006.62 1006.55
1012.27 1012.37 1012.15 1011.76 1011.32 1011.57 1010.79 1010.39 1010.19 1010.36 1009.92 1010.06 1009.99 1009.56 1009.55 1009.55 1008.69 1007.25 1005.66 1004.49 1004.54 1004.62 1004.15 1004.31 1004.46 1004.30 1004.22 1004.21 1004.33 1004.75 1005.36 1005.92 1006.29 1006.21 1005.86 1004.83 1004.34 1004.23 1004.04 1004.05 1004.06 1004.31 1004.67 1004.77 1004.87 1005.06 1005.22 1005.44 1005.63 1005.61 1005.64 1005.85 1005.96 1005.85
1011.46 1011.01 1010.94 1010.25 1009.90 1009.80 1009.52 1009.05 1008.64 1008.54 1008.48 1008.72 1008.46 1008.10 1007.98 1007.77 1007.07 1005.27 1003.97 1003.53 1003.15 1003.04 1002.90 1002.96 1002.93 1002.96 1002.89 1002.78 1002.87 1002.88 1003.14 1003.87 1004.40 1004.19 1003.96 1003.74 1003.72 1003.66 1003.56 1003.58 1003.61 1003.73 1004.05 1004.19 1004.42 1004.53 1004.65 1004.82 1004.89 1004.88 1004.93 1005.15 1005.65 1005.89
1010.60 1010.12 1009.58 1009.52 1009.11 1008.50 1008.28 1007.91 1008.06 1008.07 1007.68 1007.39 1006.98 1007.10 1007.14 1006.68 1005.47 1004.16 1003.69 1003.35 1003.06 1003.24 1003.22 1003.16 1002.96 1002.57 1002.28 1002.12 1002.04 1002.11 1002.36 1002.37 1002.79 1003.21 1003.42 1003.25 1003.20 1003.22 1003.32 1003.33 1003.22 1003.41 1003.52 1003.70 1003.78 1003.78 1003.89 1004.10 1004.20 1004.27 1004.31 1004.38 1004.63 1004.70
1009.99 1009.65 1008.82 1008.45 1008.20 1008.02 1007.82 1007.49 1007.20 1006.85 1006.50 1006.53 1006.98 1006.96 1006.42 1005.76 1004.90 1004.39 1004.20 1004.13 1003.97 1003.93 1003.61 1003.21 1003.00 1002.60 1002.20 1001.71 1001.65 1001.71 1001.93 1002.06 1002.34 1002.58 1002.68 1002.70 1002.71 1002.74 1002.84 1003.02 1003.24 1003.54 1003.81 1003.74 1003.77 1003.29 1003.50 1003.99 1004.35 1004.44 1004.46 1004.49 1004.47 1004.29
1008.87 1008.38 1008.62 1008.08 1007.88 1007.65 1007.17 1006.50 1006.03 1005.81 1005.84 1006.00 1005.74 1005.49 1005.33 1005.43 1005.22 1005.35 1004.85 1004.50 1004.60 1004.39 1003.82 1003.36 1003.51 1003.19 1002.79 1002.31 1002.10 1001.78 1001.51 1001.58 1001.71 1001.82 1002.17 1002.03 1002.00 1002.13 1002.48 1002.67 1002.75 1002.81 1003.22 1003.45 1003.80 1004.05 1003.96 1004.43 1004.63 1004.71 1004.35 1004.27 1004.03 1003.81
1007.46 1007.48 1007.71 1007.50 1007.23 1006.69 1005.95 1005.67 1005.73 1005.80 1005.59 1005.46 1005.59 1005.65 1005.28 1004.83 1004.50 1004.41 1004.36 1004.34 1004.20 1003.80 1003.28 1002.89 1002.98 1003.13 1003.17 1002.83 1002.18 1002.10 1001.74 1001.44 1001.29 1001.38 1001.45 1001.36 1001.11 1000.97 1001.20 1001.54 1001.96 1002.09 1002.16 1002.37 1002.82 1003.20 1004.18 1004.28 1004.31 1004.57 1004.58 1004.00 1003.65 1003.40
1006.63 1006.58 1006.66 1006.70 1006.35 1005.87 1005.40 1005.04 1004.85 1004.80 1004.70 1004.67 1004.66 1004.70 1004.33 1003.97 1003.52 1003.34 1003.26 1003.17 1003.20 1003.28 1003.07 1002.78 1002.52 1002.26 1001.91 1001.55 1001.39 1001.44 1001.49 1001.37 1001.26 1001.35 1001.65 1001.58 1001.48 1001.52 1001.59 1001.64 1001.78 1001.87 1001.89 1002.03 1002.19 1002.43 1002.70 1002.76 1002.83 1002.83 1002.76 1002.44 1002.22 1002.25
1006.81 1006.67 1006.35 1006.03 1005.65 1005.17 1004.84 1004.66 1004.61 1004.53 1004.40 1004.20 1003.85 1003.60 1003.45 1003.19 1002.83 1002.44 1002.16 1002.29 1002.56 1002.61 1003.02 1002.89 1002.53 1002.50 1002.29 1002.06 1001.82 1001.72 1001.90 1001.64 1001.56 1001.48 1001.68 1001.75 1001.99 1002.09 1002.22 1002.21 1002.22 1002.22 1002.38 1002.47 1002.50 1002.44 1002.39 1002.37 1002.22 1001.95 1001.81 1001.63 1001.50 1001.32
1006.42 1006.09 1006.08 1005.97 1005.43 1004.88 1004.49 1004.71 1004.50 1004.01 1003.65 1003.48 1003.21 1002.96 1002.81 1002.63 1002.31 1001.99 1002.61 1003.06 1003.70 1003.93 1003.92 1003.68 1003.57 1003.60 1003.64 1003.54 1003.15 1003.04 1002.84 1002.32 1002.63 1003.11 1003.24 1003.35 1003.44 1003.56 1003.58 1003.45 1003.51 1003.65 1003.32 1003.09 1003.05 1002.68 1002.32 1001.90 1001.56 1001.41 1001.33 1001.20 1000.87 1000.77
Wind_Speed
13 13 13 12 11 10 9 9 9 8 9 9 9 10 12 13 16 11 4 7 8 7 9 2 3 7 4 5 7 9 7 6 6 6 5 1 8 4 5 5 3 6 6 6 7 9 9 5 3 4 7 5 3 2
11 12 13 13 12 11 11 9 9 8 8 9 8 8 9 10 13 13 7 6 6 6 9 11 11 11 9 8 8 2 5 2 6 6 1 4 5 3 6 5 4 6 5 8 9 7 6 3 6 4 5 4 0 3
9 9 9 11 12 11 10 9 8 7 7 7 8 8 8 9 9 7 7 6 9 8 11 8 5 6 7 11 9 6 4 5 2 4 7 5 4 5 8 5 6 4 5 6 3 9 5 2 0 2 2 3 5 6
10 7 5 4 5 6 6 5 4 5 6 7 7 8 7 7 9 8 7 6 6 6 6 5 5 4 1 6 9 11 9 6 8 3 7 6 7 3 7 5 5 6 1 5 10 6 5 6 3 3 1 2 4 5
8 8 8 6 4 2 1 3 4 4 5 7 8 8 7 7 8 10 9 7 4 6 7 10 14 9 6 9 9 9 9 9 7 6 7 7 5 4 8 9 9 10 9 8 2 8 7 6 3 2 2 2 1 2
9 9 9 10 8 6 4 4 5 5 5 7 8 8 8 7 7 7 4 5 4 3 6 6 4 6 4 4 8 12 10 9 9 7 6 5 3 3 7 7 7 4 8 11 9 6 6 2 3 7 4 4 5 7
9 10 11 12 12 10 9 6 5 5 6 7 8 9 7 6 4 6 5 5 10 6 6 6 5 8 5 8 8 6 9 7 6 8 9 9 5 6 8 12 11 5 5 4 6 7 7 9 8 6 5 5 4 3
9 8 9 9 10 11 11 10 8 7 7 7 9 8 4 4 6 8 10 12 6 6 5 6 6 4 11 7 7 6 6 7 6 7 6 5 4 5 7 7 6 7 7 8 8 10 13 11 4 7 8 8 7 4
10 10 9 9 8 11 11 9 9 9 7 6 9 3 2 2 3 4 8 10 5 5 5 6 8 3 5 8 5 4 6 7 6 8 11 7 10 10 8 9 8 8 7 8 10 12 12 9 10 7 9 8 5 2
11 10 9 9 8 8 8 8 9 9 6 3 4 3 3 4 1 5 3 6 4 5 5 10 9 9 4 6 5 5 6 8 7 10 8 12 15 17 17 12 9 8 7 7 7 15 15 12 10 10 5 7 4 4
12 11 10 10 10 9 8 9 9 7 4 3 3 3 1 3 2 3 4 5 5 5 7 10 14 12 7 8 7 6 3 4 6 8 6 7 10 14 18 18 13 13 11 12 12 12 16 13 11 9 8 6 5 3
12 12 12 11 10 10 10 9 8 8 3 2 1 0 2 3 3 5 5 4 6 6 9 12 12 13 10 4 6 3 7 5 6 4 5 6 8 8 10 11 11 11 12 14 14 15 17 14 12 9 9 7 6 5
13 12 11 10 9 9 10 9 11 2 6 2 2 3 4 4 7 6 8 4 4 5 4 7 6 4 7 5 7 6 7 8 4 6 8 9 9 9 10 9 9 11 12 12 15 13 13 14 13 11 10 8 7 5
13 12 11 11 10 10 9 9 12 7 4 4 4 4 5 6 6 6 6 1 2 6 4 8 9 7 5 10 8 6 7 7 9 13 17 6 12 11 10 9 10 14 15 16 14 13 13 13 12 11 11 8 6 5
13 12 11 12 12 11 10 8 15 5 4 5 4 6 9 8 5 3 4 4 4 5 6 7 6 8 10 7 7 7 7 9 8 15 11 8 12 9 10 10 12 13 14 14 14 13 14 14 13 11 9 8 6 4
14 9 13 13 14 13 12 8 7 2 3 3 6 4 5 6 8 8 6 7 3 1 5 7 3 5 8 7 10 13 8 9 10 9 10 10 10 9 8 10 12 13 13 13 13 14 14 13 11 10 8 7 7 4
14 6 12 20 15 15 12 4 3 5 6 5 5 9 8 4 5 3 1 1 3 2 2 5 6 8 6 9 15 11 13 10 5 5 8 10 8 10 9 9 9 10 10 11 12 11 11 9 7 7 6 6 3 3
9 10 9 17 16 8 4 4 5 6 6 6 6 7 9 8 8 5 2 2 1 2 1 3 6 5 4 9 11 10 7 3 5 8 10 8 8 8 9 12 11 11 11 11 10 9 7 4 5 3 2 4 4 6
9 6 9 18 12 3 3 2 2 5 6 6 9 9 8 6 4 5 4 4 3 1 2 2 6 5 4 6 7 12 5 6 7 8 10 11 11 12 11 10 11 12 13 13 13 10 10 9 6 6 5 6 8 6
8 4 8 20 7 2 3 3 2 2 2 4 8 10 9 9 5 4 6 4 3 1 5 5 5 5 4 5 7 10 11 8 8 10 11 10 10 12 12 11 9 10 9 8 6 1 3 5 6 7 7 6 6 7
6 10 14 6 2 3 2 3 4 5 5 6 6 7 4 4 7 8 8 7 3 4 4 6 8 5 1 4 6 7 12 13 4 9 11 10 10 10 10 8 8 4 5 6 5 5 5 5 5 6 7 7 8 8
3 13 3 4 2 1 1 3 2 2 4 3 2 6 5 7 9 8 5 8 5 7 8 8 10 10 6 4 4 6 13 15 14 11 4 11 10 9 9 8 8 7 6 2 6 6 5 5 6 7 7 8 7 9
8 4 3 2 3 2 2 2 5 2 5 4 3 4 5 6 5 7 5 5 8 13 12 13 14 13 9 8 6 9 8 9 8 10 10 7 8 9 9 9 9 8 7 6 5 6 7 5 5 6 9 9 9 9
4 3 4 5 5 3 5 5 3 3 3 3 1 4 3 2 3 6 8 11 10 9 12 13 9 10 12 14 12 12 11 6 6 9 9 7 7 8 8 7 6 6 7 7 7 8 8 9 7 8 9 10 11 11
3 3 4 3 5 5 6 6 6 4 7 6 3 5 4 3 3 6 10 8 4 8 9 10 12 12 11 10 11 12 15 12 13 14 16 14 10 9 10 10 10 9 8 9 9 9 9 8 10 11 10 10 11 12
4 5 6 7 6 7 8 5 6 10 8 7 8 4 5 4 5 6 4 4 7 7 7 8 7 8 10 10 9 8 11 13 14 14 13 11 12 12 12 11 10 10 10 10 10 11 11 11 12 13 11 12 10 11
4 4 5 4 4 6 5 5 4 3 5 6 4 5 5 5 6 3 1 0 3 5 3 1 3 4 6 6 7 7 8 9 12 11 11 11 11 11 11 12 13 9 9 11 11 12 12 12 11 11 10 8 9 12
3 3 7 7 8 5 4 3 5 7 6 4 4 5 4 5 3 5 3 4 5 5 5 4 4 5 5 5 3 5 7 7 6 8 8 9 9 8 10 9 9 2 6 10 9 8 6 6 8 10 10 11 11 11
6 5 6 6 5 4 4 5 4 3 2 3 5 5 2 2 3 1 6 3 2 5 8 5 3 6 8 5 3 5 5 9 11 11 13 9 9 10 10 10 9 9 10 11 9 9 10 9 11 12 12 11 12 12
6 6 6 6 5 6 5 4 1 4 4 4 4 5 7 7 7 8 9 7 8 9 9 7 4 7 5 9 8 6 6 6 6 7 9 10 9 7 7 9 9 9 8 9 10 12 17 13 12 11 12 12 11 12
4 6 8 7 9 9 9 7 7 7 6 7 7 8 9 8 7 6 7 7 7 8 9 9 9 9 9 9 8 7 8 9 8 7 7 8 8 8 7 7 7 7 9 10 9 10 11 11 13 15 16 16 15 13
5 8 9 11 10 10 9 9 9 10 10 10 10 10 9 9 10 7 8 6 6 7 4 6 6 8 10 10 8 8 6 8 9 7 9 6 9 8 8 9 9 8 9 13 14 14 16 18 16 17 16 19 17 19
9 7 6 6 8 7 6 6 7 7 8 8 7 5 6 7 8 1 5 7 6 4 4 5 6 6 7 8 8 7 7 8 9 6 3 4 4 6 6 6 5 7 9 8 9 12 14 18 19 21 20 21 18 16
Wind_Direction
257 253 247 243 253 262 270 279 292 303 316 323 332 339 343 347 347 340 331 17 345 318 302 337 309 296 296 246 294 45 247 189 253 265 292 90 275 109 289 299 318 249 237 208 236 252 223 100 171 289 76 124 82 107
261 257 253 249 243 241 252 262 275 290 302 309 318 326 329 341 343 339 306 2 334 266 321 320 285 291 276 281 303 290 347 306 8 289 266 321 252 224 302 281 161 254 296 344 338 45 85 47 54 73 37 341 245 252
274 265 262 253 245 243 240 245 260 277 288 298 309 310 314 323 333 344 314 316 307 256 278 223 199 137 230 233 257 283 132 6 250 9 316 306 290 304 276 257 285 171 272 272 331 151 143 73 9 235 283 260 276 262
248 268 274 275 258 239 236 239 262 290 296 301 301 296 290 300 310 318 306 328 289 292 278 122 132 197 226 213 220 238 293 268 273 283 271 276 285 114 277 352 283 15 111 251 261 195 150 220 287 329 328 338 290 277
247 248 246 242 268 250 329 320 320 316 325 320 311 303 286 283 297 283 271 272 268 296 326 319 306 238 195 228 221 222 243 261 264 242 234 251 263 305 254 261 268 244 220 237 7 14 169 112 149 260 172 178 134 262
253 246 252 234 227 229 238 270 290 306 331 328 324 310 289 278 298 281 236 147 213 294 278 285 57 196 196 209 227 235 240 240 245 255 258 254 279 264 273 255 250 253 273 212 252 138 240 128 165 206 206 205 171 184
248 247 246 241 224 221 222 223 262 294 312 318 319 313 293 252 258 264 347 8 333 298 260 281 259 126 216 226 218 220 219 233 235 242 238 259 249 191 267 264 270 209 259 231 262 250 194 218 208 186 207 195 182 207
246 251 248 244 238 231 221 225 238 252 272 294 313 309 280 211 280 277 227 209 263 277 264 263 257 189 171 206 215 211 217 213 215 242 242 240 220 216 260 266 263 252 228 198 225 214 210 195 139 201 186 192 185 197
262 241 242 246 240 237 226 222 227 230 257 286 308 151 110 196 220 280 83 127 215 289 274 230 249 261 153 247 214 161 240 219 226 226 231 245 224 223 223 242 229 199 206 213 207 208 233 152 188 200 209 188 126 81
248 256 251 237 221 218 224 228 233 223 248 275 205 188 215 206 146 166 260 187 180 218 224 256 260 256 198 195 208 231 181 240 233 219 228 240 243 245 229 224 232 214 206 222 217 199 203 202 199 199 163 30 159 67
243 244 247 235 236 221 216 222 217 205 190 208 202 220 59 162 173 205 208 206 173 211 216 224 234 243 215 260 230 216 254 251 245 224 212 239 233 220 216 221 205 214 226 229 225 221 201 199 187 192 147 139 142 153
230 237 240 244 235 230 214 206 195 205 181 149 92 61 145 208 220 214 199 198 215 213 204 207 206 218 239 185 251 209 240 249 246 122 221 245 238 133 158 183 191 206 218 213 205 214 198 188 178 144 144 174 139 111
219 227 233 225 219 221 202 198 203 206 134 169 204 222 188 171 223 221 199 188 195 253 142 146 163 203 188 202 229 205 227 237 219 218 237 248 136 152 174 183 190 185 189 180 189 185 186 155 151 149 160 144 143 141
211 220 219 214 211 218 208 205 192 181 234 188 185 222 234 194 227 196 212 269 266 313 203 179 161 188 196 191 218 209 223 247 218 228 233 220 164 165 177 193 188 174 174 170 181 176 157 142 153 154 154 152 160 158
209 214 218 219 210 207 203 201 180 202 234 184 189 222 219 233 219 216 273 219 236 301 305 189 212 215 185 201 217 222 210 213 210 227 250 119 138 155 182 193 192 178 177 174 178 162 156 157 157 159 152 157 142 159
210 213 223 213 201 197 187 193 181 211 248 234 226 243 229 262 240 226 234 263 177 354 326 258 219 204 206 221 203 213 219 210 223 217 107 123 140 156 182 191 181 178 172 172 157 159 155 158 157 152 168 182 172 177
193 227 184 188 187 181 186 176 139 177 207 215 242 219 260 269 271 193 282 244 14 52 225 258 234 191 205 229 225 221 221 239 149 122 110 127 139 150 148 141 138 148 161 142 137 147 154 161 145 158 189 169 278 116
213 209 176 177 172 166 176 225 172 174 207 230 232 221 225 243 257 239 211 110 149 198 265 313 313 280 232 227 215 214 232 133 109 130 119 129 142 143 140 138 134 124 121 123 132 131 141 131 150 174 247 253 231 228
212 199 177 170 174 157 145 135 273 197 192 206 226 265 273 256 250 304 243 160 119 90 310 358 275 271 271 10 350 329 166 139 140 143 127 151 150 146 141 143 149 153 158 165 172 184 173 181 185 205 211 238 253 264
243 281 240 164 176 109 103 110 280 201 248 235 232 246 245 251 249 217 223 179 141 192 196 204 218 295 347 326 336 324 330 309 156 138 162 159 154 154 159 164 163 149 161 149 173 244 192 208 219 232 240 260 285 284
184 140 123 133 111 37 149 170 191 207 226 217 221 250 265 266 251 233 226 195 152 216 234 230 232 257 292 283 296 304 302 345 302 175 170 167 172 170 162 164 154 175 181 188 197 200 215 258 270 276 271 261 266 271
97 86 94 64 93 119 36 219 273 289 244 264 264 197 235 230 240 224 245 219 219 225 233 238 239 242 198 228 295 309 312 325 339 318 263 146 178 179 178 177 187 189 197 258 280 275 257 254 257 261 261 260 249 257
84 45 67 127 131 149 193 189 237 222 228 196 201 215 216 223 210 163 215 232 244 237 225 231 223 235 217 180 187 246 257 297 303 307 318 243 178 188 196 200 211 222 239 231 245 261 266 279 275 265 269 269 266 266
141 92 148 176 162 182 166 193 196 206 297 239 245 276 290 316 309 212 242 249 248 212 213 225 223 221 225 222 218 222 227 196 244 278 266 280 257 226 231 228 220 233 245 254 258 259 255 253 256 256 251 249 253 256
126 176 171 182 184 178 214 191 198 195 221 192 204 224 204 205 255 244 251 256 228 244 225 214 221 228 232 238 223 216 208 205 213 221 230 240 250 249 241 237 241 243 251 248 247 248 250 253 257 254 253 257 262 268
193 168 195 201 173 196 197 218 222 217 231 201 218 227 184 213 244 250 245 271 211 226 224 225 245 234 225 226 243 240 213 205 223 232 234 237 233 240 244 248 248 245 244 247 248 246 253 252 251 250 253 252 233 246
203 181 194 225 226 211 223 224 228 244 228 225 206 199 199 221 237 244 134 217 81 72 72 262 279 286 270 271 264 227 244 220 207 222 232 237 240 239 239 244 246 256 267 261 250 248 234 239 253 261 264 270 283 286
250 190 217 189 210 235 273 243 217 213 214 200 156 201 235 224 251 19 55 44 22 345 323 313 305 317 329 333 277 225 227 225 209 220 231 232 234 241 242 245 249 205 268 275 282 267 234 250 266 275 281 281 278 278
227 179 210 242 209 216 240 249 241 250 4 328 276 240 277 51 152 189 291 324 320 342 307 295 319 310 300 255 250 264 218 198 208 210 227 235 226 216 220 225 235 211 208 228 214 255 273 276 274 280 283 290 293 291
217 174 196 231 219 221 235 228 280 271 250 239 204 269 272 241 233 210 223 221 235 235 262 281 250 220 239 270 257 242 244 237 248 214 206 221 240 247 209 198 207 225 231 242 242 214 208 232 232 241 245 246 251 254
234 212 222 221 246 249 260 262 254 254 260 261 245 240 254 266 276 266 258 260 248 247 256 262 268 267 261 262 256 245 235 244 247 250 283 301 312 310 305 297 290 286 285 281 267 256 259 248 237 243 254 259 265 266
227 232 242 251 262 265 259 259 263 269 269 263 255 250 251 253 260 268 255 241 246 263 0 326 336 355 360 356 347 328 340 306 314 305 302 259 222 247 264 273 273 274 286 276 269 271 270 264 259 260 264 264 261 269
228 234 230 256 261 250 233 227 258 253 244 246 249 271 258 257 257 56 56 24 29 33 10 9 6 1 355 331 329 324 305 311 14 353 23 16 9 356 318 294 291 306 293 287 299 302 301 281 266 262 265 271 269 267